Weather in Teploye

Russia / Lipetsk Oblast     52°54′59″N   39°11′58″E
temp.,
°C
wind,
m/s
gust,
m/s
humid.,
%
clouds,
%
prec.,
mm/h
press.,
hPa
HPBL,
m
8 march, mon
mon800:00−4w61580100 2.3 1001580
03:00−7wsw5128584 2.3 1002264
06:00−7wsw511894 0.0 1001263
09:00−5wsw6138931 0.0 1001574
12:00−4w8128489 0.1 10031119
15:00−4wnw7108395 0.2 10041199
18:00−7wnw3488100 0.1 100791
21:00−11wnw239052 0.1 100921
9 march, tue
tue900:00−13wnw23910 0.0 101020
03:00−14nw23930 0.0 101120
06:00−12nnw349690 0.1 1012125
09:00−12n469486 0.1 1014244
12:00−11nnw469070 0.0 1015433
15:00−10nnw578881 0.0 1017589
18:00−13nw3693100 0.0 101892
21:00−16nw349573 0.0 102166
10 march, wed
wed1000:00−17nnw349657 0.0 102247
03:00−19nw349731 0.0 102353
06:00−21nw34960 0.0 102569
09:00−20nnw36940 0.0 1026242
12:00−17nnw359036 0.0 1027335
15:00−15nnw348766 0.0 1027436
18:00−18n239392 0.0 102747
21:00−19ne3592100 0.0 1028115
11 march, thu
thu1100:00−22ene239122 0.0 102921
03:00−23ene239311 0.0 103120
06:00−23ne23930 0.0 103120
09:00−21ne23900 0.0 103398
12:00−17e22790 0.0 1033262
15:00−15e11770 0.0 1033293
18:00−19ene12860 0.0 103320
21:00−20se22870 0.0 103420
12 march, fri
fri1200:00−20sse23900 0.0 103420
03:00−20sse34860 0.0 103449
06:00−21sse44820 0.0 103467
09:00−17sse59820 0.0 1033258
12:00−11s6127685 0.0 1031439
15:00−8sse7127493 0.0 1029575
18:00−9sse71475100 0.0 1026514
21:00−9s71771100 0.0 1025569